Total_Precipitation_Accumulation
0.93 0.90 0.82 0.83 0.77 0.87 1.01 1.11 1.06 0.95 0.92 0.84 0.79 0.90 0.98 1.06 1.09 1.17 1.27 1.32 1.54 1.88 2.15 2.14 1.92 1.68 1.58 1.59 1.65 1.69 1.77 1.87 1.86 1.85 1.89 1.84 1.81 1.69 1.62 1.62 1.57 1.50 1.57
0.97 0.95 0.92 0.94 0.90 0.93 1.06 1.08 0.99 1.03 1.06 0.97 0.82 0.85 0.97 1.04 1.11 1.12 1.16 1.29 1.39 1.52 1.99 2.27 2.23 2.04 1.97 1.82 1.93 1.99 1.96 1.78 1.70 1.78 1.82 1.84 1.86 1.70 1.59 1.53 1.48 1.39 1.40
0.85 0.89 0.92 0.93 0.97 1.07 1.13 1.17 1.00 1.05 1.02 0.93 0.89 0.86 0.88 0.92 0.97 1.02 0.98 1.03 1.14 1.28 1.61 2.04 2.37 2.37 2.40 2.33 2.16 2.07 1.91 1.71 1.67 1.70 1.75 1.71 1.78 1.72 1.61 1.63 1.51 1.49 1.45
0.78 0.92 0.95 0.93 0.96 1.11 1.21 1.26 1.17 1.15 1.10 1.06 1.04 0.99 0.91 0.96 0.91 0.95 0.96 0.95 1.12 1.07 1.26 1.54 1.87 2.13 2.40 2.38 2.18 2.09 1.92 1.61 1.53 1.63 1.68 1.59 1.64 1.68 1.56 1.65 1.57 1.49 1.44
0.85 1.04 1.16 1.17 1.15 1.18 1.19 1.15 1.22 1.23 1.22 1.23 1.15 1.10 1.04 1.01 1.04 0.95 0.97 1.04 1.02 1.04 1.15 1.09 1.23 1.42 1.81 2.06 2.13 2.28 2.18 1.74 1.50 1.58 1.68 1.52 1.52 1.64 1.52 1.55 1.52 1.39 1.33
1.21 1.37 1.37 1.44 1.51 1.41 1.39 1.34 1.37 1.32 1.26 1.32 1.20 1.10 1.05 0.98 1.07 1.08 1.07 1.10 1.06 1.01 1.14 1.11 1.14 1.07 1.29 1.61 1.91 2.27 2.46 2.07 1.75 1.66 1.76 1.65 1.54 1.65 1.51 1.51 1.51 1.29 1.21
1.54 1.76 1.72 1.79 1.83 1.74 1.73 1.76 1.97 1.91 1.63 1.39 1.46 1.32 1.14 1.01 1.14 1.15 1.15 1.19 1.21 1.27 1.33 1.28 1.19 1.14 1.02 1.09 1.32 1.81 2.42 2.32 2.07 1.87 1.85 1.77 1.56 1.51 1.37 1.38 1.42 1.33 1.18
1.45 1.59 1.86 1.97 1.92 1.98 2.13 2.14 2.50 2.62 2.16 1.73 1.76 1.93 1.67 1.45 1.21 1.05 1.12 1.14 1.26 1.49 1.50 1.31 1.21 1.12 1.03 1.04 0.86 1.23 1.86 2.17 2.19 2.06 1.89 1.71 1.56 1.40 1.37 1.44 1.41 1.46 1.34
1.42 1.54 1.69 1.84 1.87 1.96 2.08 2.22 2.57 3.06 2.82 2.24 1.99 2.29 2.02 1.78 1.61 1.26 1.08 1.09 1.24 1.49 1.66 1.57 1.41 1.28 1.12 1.13 1.01 1.01 1.23 1.51 2.00 2.20 2.11 1.90 1.79 1.56 1.47 1.60 1.44 1.56 1.59
1.31 1.39 1.53 1.66 1.79 1.83 1.97 2.08 2.21 2.73 3.09 2.77 2.46 2.13 1.80 1.74 1.87 1.67 1.29 1.22 1.27 1.34 1.47 1.50 1.48 1.47 1.34 1.23 1.10 0.98 0.97 1.06 1.62 2.05 2.27 2.22 2.07 1.87 1.85 2.02 1.75 1.61 1.59
1.42 1.41 1.55 1.62 1.64 1.70 1.81 2.14 2.41 2.68 2.90 2.87 2.81 2.61 2.33 2.05 1.71 1.84 1.76 1.51 1.39 1.31 1.35 1.43 1.42 1.45 1.47 1.41 1.44 1.17 0.95 0.92 1.19 1.65 2.13 2.44 2.36 2.21 2.30 2.39 2.01 1.82 1.74
1.54 1.57 1.61 1.62 1.60 1.62 1.73 1.96 2.24 2.46 2.78 2.97 2.88 2.67 2.54 2.41 2.19 2.06 1.83 1.70 1.67 1.50 1.40 1.39 1.33 1.35 1.46 1.60 1.56 1.51 1.09 0.88 0.91 1.22 1.56 1.93 2.22 2.33 2.51 2.53 2.27 2.23 2.08
1.46 1.48 1.56 1.67 1.75 1.78 1.89 2.06 2.20 2.12 2.34 2.73 2.74 2.59 2.49 2.29 2.27 2.30 2.13 1.83 1.70 1.43 1.34 1.28 1.25 1.37 1.36 1.39 1.61 1.79 1.31 1.02 0.84 1.04 1.20 1.34 1.59 1.94 2.37 2.62 2.61 2.60 2.51
1.40 1.33 1.37 1.46 1.60 1.77 1.82 1.86 1.88 1.86 1.98 2.24 2.33 2.51 2.61 2.36 2.22 2.09 2.01 2.05 1.82 1.55 1.40 1.28 1.19 1.23 1.26 1.30 1.51 1.69 1.33 1.13 0.85 0.79 0.89 1.08 1.18 1.31 1.65 2.08 2.47 2.58 2.72
1.15 1.06 1.07 1.11 1.19 1.27 1.36 1.51 1.60 1.72 1.76 1.89 2.04 2.18 2.33 2.43 2.34 2.11 2.02 1.99 1.96 1.78 1.58 1.45 1.29 1.12 1.23 1.35 1.53 1.38 1.25 1.23 1.03 0.84 0.78 0.85 0.96 1.00 1.14 1.27 1.50 1.83 2.25
1.06 0.98 0.94 0.90 0.88 0.86 0.90 1.09 1.29 1.42 1.52 1.67 1.85 1.99 2.02 2.09 2.27 2.22 2.02 1.99 1.92 1.80 1.67 1.48 1.37 1.24 1.42 1.34 1.47 1.32 1.33 1.38 1.08 0.94 0.86 0.82 0.83 0.77 0.76 0.80 0.83 0.99 1.38
1.03 1.02 0.93 0.87 0.94 0.94 0.91 0.97 1.03 1.10 1.17 1.31 1.45 1.58 1.73 1.99 2.30 2.31 2.24 2.11 1.99 1.85 1.64 1.48 1.28 1.20 1.52 1.62 1.53 1.41 1.38 1.33 1.08 0.98 0.90 0.83 0.80 0.75 0.70 0.64 0.65 0.70 0.84
0.70 0.80 0.88 0.83 0.82 0.85 0.87 0.93 0.96 1.00 1.03 1.12 1.22 1.35 1.53 1.81 2.16 2.37 2.44 2.32 2.16 2.01 1.89 1.73 1.41 1.17 1.29 1.63 1.77 1.71 1.47 1.29 1.16 1.07 0.95 0.85 0.80 0.73 0.68 0.66 0.65 0.65 0.66
0.55 0.59 0.68 0.68 0.78 0.86 0.88 0.90 0.91 0.95 0.97 1.05 1.20 1.25 1.31 1.50 1.70 1.91 2.09 2.21 2.20 2.17 2.16 1.92 1.60 1.34 1.27 1.41 1.66 1.68 1.60 1.55 1.32 1.24 1.24 1.12 0.98 0.88 0.78 0.69 0.68 0.65 0.62
0.61 0.66 0.77 0.80 0.75 0.73 0.78 0.89 0.92 0.88 0.86 0.89 0.98 1.08 1.17 1.22 1.37 1.51 1.63 1.82 2.04 2.28 2.35 2.20 1.93 1.60 1.48 1.37 1.48 1.63 1.70 1.66 1.57 1.38 1.33 1.22 1.20 1.14 1.02 0.86 0.73 0.67 0.68
0.68 0.70 0.79 0.89 0.94 0.88 0.85 0.93 0.89 0.87 0.87 0.85 0.89 0.90 0.97 0.99 1.05 1.23 1.28 1.51 1.84 2.10 2.22 2.29 2.16 1.85 1.58 1.40 1.20 1.30 1.56 1.78 1.80 1.71 1.70 1.45 1.31 1.17 1.09 1.05 0.97 0.85 0.76
0.55 0.55 0.58 0.65 0.74 0.78 0.98 0.93 0.77 0.72 0.78 0.84 0.88 0.88 0.89 0.84 0.82 0.89 1.02 1.15 1.46 1.67 1.81 1.89 1.91 1.76 1.53 1.40 1.35 1.32 1.39 1.54 1.60 1.49 1.54 1.61 1.54 1.38 1.28 1.15 1.17 1.20 1.12
0.45 0.43 0.43 0.43 0.49 0.64 0.72 0.57 0.54 0.59 0.73 0.84 0.92 0.94 0.90 0.84 0.89 0.90 0.92 0.93 1.00 1.18 1.39 1.60 1.63 1.53 1.59 1.50 1.42 1.32 1.33 1.35 1.33 1.44 1.52 1.59 1.57 1.46 1.38 1.36 1.39 1.29 1.23
0.37 0.36 0.42 0.48 0.49 0.51 0.59 0.48 0.46 0.56 0.75 0.88 0.89 0.84 0.91 0.92 0.94 1.01 0.94 1.01 0.97 0.95 1.04 1.09 1.22 1.43 1.58 1.74 1.72 1.61 1.61 1.55 1.46 1.56 1.58 1.53 1.44 1.36 1.27 1.25 1.30 1.18 1.10
0.42 0.42 0.51 0.58 0.52 0.46 0.52 0.52 0.56 0.70 0.82 0.90 0.87 0.87 0.94 0.98 1.11 1.16 1.07 1.12 1.08 1.05 1.02 1.13 1.22 1.33 1.41 1.53 1.68 1.72 1.68 1.64 1.50 1.43 1.45 1.39 1.29 1.31 1.30 1.19 1.11 1.11 1.02
0.35 0.42 0.44 0.42 0.42 0.49 0.56 0.54 0.65 0.83 0.95 1.05 1.01 1.00 1.18 1.13 1.11 1.06 1.04 1.19 1.15 1.01 0.94 0.98 1.04 1.12 1.16 1.25 1.38 1.43 1.56 1.63 1.53 1.39 1.22 1.20 1.21 1.24 1.28 1.18 1.07 1.00 0.97